This is the latest recevied weather packets stored in our database for station/object N4NVD-13. If no packets are shown the sender has not sent any weather packets the latest 10 day(s).
| Time | Temp. | Humidity | Pressure | Rain* | Wind** | Luminosity | Snow |
|---|---|---|---|---|---|---|---|
| 1777597194 | 18.89° C | 99% | 1009.7 hPa | 0 mm | - | 0 W/m² | - |
| 1777596889 | 18.89° C | 99% | 1009.8 hPa | 0 mm | - | 2 W/m² | - |
| 1777596586 | 18.89° C | 99% | 1009.7 hPa | 0 mm | - | 9 W/m² | - |
| 1777596283 | 19.44° C | 99% | 1009.8 hPa | 0 mm | - | 13 W/m² | - |
| 1777595980 | 19.44° C | 99% | 1009.9 hPa | 0 mm | - | 18 W/m² | - |
| 1777595675 | 19.44° C | 99% | 1009.7 hPa | 0 mm | - | 23 W/m² | - |
| 1777595370 | 19.44° C | 99% | 1009.7 hPa | 0 mm | - | 23 W/m² | - |
| 1777595068 | 19.44° C | 99% | 1009.9 hPa | 0 mm | - | 24 W/m² | - |
| 1777594764 | 19.44° C | 99% | 1010.1 hPa | 0 mm | - | 27 W/m² | - |
| 1777594460 | 19.44° C | 99% | 1010.2 hPa | 0 mm | - | 31 W/m² | - |
| 1777594156 | 19.44° C | 99% | 1010.2 hPa | 0 mm | - | 37 W/m² | - |
| 1777593852 | 19.44° C | 99% | 1010 hPa | 0 mm | - | 43 W/m² | - |
| 1777593549 | 19.44° C | 99% | 1010 hPa | 0 mm | - | 50 W/m² | - |
| 1777593243 | 19.44° C | 99% | 1010.1 hPa | 0 mm | - | 48 W/m² | - |
| 1777592943 | 19.44° C | 99% | 1010.3 hPa | 0 mm | - | 40 W/m² | - |
| 1777592637 | 19.44° C | 99% | 1009.9 hPa | 0 mm | - | 42 W/m² | - |
| 1777592334 | 19.44° C | 99% | 1010.1 hPa | 0 mm | - | 42 W/m² | - |
| 1777592030 | 19.44° C | 99% | 1010.4 hPa | 0 mm | - | 62 W/m² | - |
| 1777591727 | 19.44° C | 99% | 1010.4 hPa | 0 mm | - | 39 W/m² | - |
| 1777591422 | 19.44° C | 99% | 1010.3 hPa | 0 mm | - | 26 W/m² | - |
| 1777591118 | 19.44° C | 99% | 1010.5 hPa | 0 mm | - | 22 W/m² | - |
| 1777590814 | 19.44° C | 99% | 1010.5 hPa | 0 mm | - | 32 W/m² | - |
| 1777590510 | 19.44° C | 99% | 1010.7 hPa | 0 mm | - | 24 W/m² | - |
| 1777590206 | 19.44° C | 99% | 1010.4 hPa | 0 mm | - | 27 W/m² | - |
| 1777589904 | 19.44° C | 99% | 1010.1 hPa | 0 mm | - | 37 W/m² | - |
* Rain latest hour (hover to see other rain measurements)
** Current wind speed in m/s (hover to see current wind gust speed)